OPS 4682 DEB, 38402

Orbit data source: Space-Track

OPS 4682 DEB, 38402 is space debris in LEO originally from a launch on Sat, 03 Apr 1965 UTC launched from the Air Force Western Test Range (AFWTR). Debris objects in space refer to the collection of defunct objects orbiting the Earth. Examples of debris include non-operational satellites, rocket bodies, and fragments generated from explosions, collisions, or faulty payload assembly.

Loading next visibility...
Identifier
38402, 1965-027DF
Orbit
LEO
Country
Flag of USUS
Related business
Manufacturer
Unknown
Mission
Spacecraft
Bus & Motor
Unknown
Mass
Unknown
Launch date (UTC)
1965-04-03 (61 years ago)
Launch vehicle
Unknown
Launch site
Air Force Western Test Range (AFWTR)
Object type
Payload
Rocket body
Debris
Shape & HBR
Unknown shape, 0.1 m
Radar Cross Section
Small (<0.1 m²)

Expand to show TLE details & history
Last TLE update: 3 days ago

TLE from 3 days ago
0 OPS 4682 DEB
1 38402U 65027DF  26101.16361811  .00000298  00000-0  10508-2 0  9999
2 38402  90.2425   3.6224 0029361  76.5147 283.9240 12.93872733578428
Epoch: 2026-04-11T03:55Z
TLE epoch observation values (Epoch: 2026-04-11T03:55:36.604Z)
Latitude
-0.00009°
Longitude
105.33302°
Altitude
1,283.709 km
Speed
7.217 km/s
True Right ascension
00h 14m 29s
True Declination
0° 00' 00"
Sunlit
Object was in daylight at epoch
Visualization orbit readout
Latitude
Unknown
Longitude
Unknown
Altitude
Unknown
Speed
Unknown
Apparent Right ascension
Unknown
Apparent Declination
Unknown
Sunlit
N/A
Visualization observer readout
Local Sidereal Time
18:56:46
Azimuth
Unknown
Elevation
Unknown
Doppler factor
Unknown
Orbital elements
Apogee altitude
1,305.819 km
Perigee altitude
1,260.83 km
Semi-major axis
7,661.461 km
Eccentricity
0.00294
Inclination
90.2425°
RAAN
3.6224°
Arg. of periapsis
76.5147°
True anomaly
283.59715°
Mean anomaly
283.924°
Eccentric anomaly
283.7606°
Mean motion
3.2365 °/min
Orbital period
111.23 mins
BSTAR
0.0010508
Loading maneuver chart data...
Computing Atmospheric mass density...
Loading historical data...
Loading historical data...
Loading historical data...
Loading historical data...
Loading historical data...
Loading historical data...
Loading historical data...

Documentation

Showing up to 5 results
|